Weather in Soldatskaya Tashla

Russia / Ulyanovsk Oblast     54°00′44″N   48°12′27″E
temp.,
°C
wind,
m/s
gust,
m/s
humid.,
%
clouds,
%
prec.,
mm/h
press.,
hPa
HPBL,
m
3 march, wed
wed301:00−4w379780 0.0 1002131
04:00−7w349774 0.1 100374
07:00−7w499694 0.1 1003206
10:00−5nw699097 0.2 1005702
13:00−5wnw6988100 0.1 1005747
16:00−5nw71087100 0.2 1007840
19:00−8wnw41293100 0.1 1008465
22:00−9wnw41093100 0.1 1009266
4 march, thu
thu401:00−9wsw489584 0.0 1008182
04:00−9wsw6139478 0.0 1007311
07:00−6wsw7149199 0.0 1004508
10:00−3wsw81391100 0.1 1003930
13:00−1wsw81388100 0.1 1000896
16:000wsw91596100 0.8 9991136
19:000wsw81495100 0.1 999856
22:00−1wsw5129797 0.4 1000583
5 march, fri
fri501:00−2w2498100 1.4 1000162
04:00−2sw41096100 2.4 999491
07:00−1sw51197100 0.9 999549
10:000wsw25100100 2.8 998308
13:00−3n6896100 2.5 999530
16:00−5nnw5892100 2.8 1004566
19:00−9nnw249496 0.1 100861
22:00−11wnw239682 0.1 101235
6 march, sat
sat601:00−15wnw129590 0.0 101420
04:00−14s119295 0.0 101520
07:00−14se1289100 0.0 101420
10:00−10sse2390100 0.0 1013213
13:00−7sw2282100 0.0 1012455
16:00−7wsw238758 0.0 1010346
19:00−9w359631 0.3 1010170
22:00−13wnw4119449 0.3 1012274
7 march, sun
sun701:00−16wnw49930 0.0 1012197
04:00−18w49987 0.0 1014162
07:00−19wsw369952 0.0 1014106
10:00−14wsw599362 0.0 1014265
13:00−8sw711808 0.0 1012792
16:00−7ssw8137949 0.0 1008895
19:00−7ssw91687100 0.0 1006994
22:00−6sw91790100 0.3 10031103